Location: Sortland
(68.7020°N, 15.4240°E)
Time: 22:16:12
(UTC+01:00)

Envisat - Pass Details

Date: 29 October 2019
Orbit: 764 x 766 km, 98.1° (Epoch: 16 November)

Event Time Altitude Azimuth Distance (km) Brightness Sun altitude
Rises 18:01:06 0° 178° (S) 3,232 6.2 -14.3°
Reaches altitude 10° 18:03:28 10° 184° (S) 2,309 5.5 -14.5°
Maximum altitude 18:08:25 49° 260° (W) 987 4.0 -15.0°
Drops below altitude 10° 18:13:23 10° 335° (NNW) 2,320 5.8 -15.4°
Sets 18:15:47 0° 341° (NNW) 3,249 6.5 -15.6°
